This is the latest recevied weather packets stored in our database for station/object KC2TER. If no packets are shown the sender has not sent any weather packets the latest 10 day(s).
| Time | Temp. | Humidity | Pressure | Rain* | Wind** | Luminosity | Snow |
|---|---|---|---|---|---|---|---|
| 1778083299 | 19.44° C | 79% | 1009.6 hPa | 0 mm | - | 106 W/m² | - |
| 1778082998 | 20° C | 76% | 1009.6 hPa | 0 mm | - | 126 W/m² | - |
| 1778082695 | 20° C | 75% | 1009.7 hPa | 0 mm | - | 461 W/m² | - |
| 1778081556 | 20° C | 76% | 1009.6 hPa | 0 mm | - | 356 W/m² | - |
| 1778081253 | 20° C | 75% | 1009.7 hPa | 0 mm | - | 192 W/m² | - |
| 1778080950 | 20° C | 75% | 1009.5 hPa | 0 mm | - | 134 W/m² | - |
| 1778080650 | 20° C | 75% | 1009.8 hPa | 0 mm | - | 122 W/m² | - |
| 1778080345 | 20.56° C | 75% | 1009.5 hPa | 0 mm | - | 135 W/m² | - |
| 1778080042 | 20° C | 75% | 1009.9 hPa | 0 mm | - | 125 W/m² | - |
| 1778079739 | 20.56° C | 74% | 1009.8 hPa | 0 mm | - | 108 W/m² | - |
| 1778079436 | 20.56° C | 73% | 1009.7 hPa | 0 mm | - | 164 W/m² | - |
| 1778079133 | 20° C | 74% | 1009.7 hPa | 0 mm | - | 228 W/m² | - |
| 1778078830 | 20° C | 76% | 1009.5 hPa | 0 mm | - | 252 W/m² | - |
| 1778078527 | 20° C | 75% | 1009.6 hPa | 0 mm | - | 254 W/m² | - |
| 1778078224 | 20.56° C | 73% | 1009.5 hPa | 0 mm | - | 244 W/m² | - |
| 1778077922 | 21.11° C | 70% | 1009.8 hPa | 0 mm | - | 270 W/m² | - |
| 1778077621 | 21.67° C | 69% | 1009.9 hPa | 0 mm | - | 256 W/m² | - |
| 1778077318 | 22.22° C | 64% | 1009.6 hPa | 0 mm | - | 232 W/m² | - |
| 1778077015 | 22.22° C | 63% | 1009.6 hPa | 0 mm | - | 181 W/m² | - |
| 1778076714 | 22.22° C | 64% | 1009.5 hPa | 0 mm | - | 211 W/m² | - |
| 1778076411 | 22.22° C | 65% | 1009.6 hPa | 0 mm | - | 258 W/m² | - |
| 1778076108 | 21.67° C | 65% | 1009.7 hPa | 0 mm | - | 251 W/m² | - |
| 1778075805 | 21.67° C | 65% | 1009.6 hPa | 0 mm | - | 233 W/m² | - |
| 1778075501 | 22.22° C | 64% | 1009.8 hPa | 0 mm | - | 279 W/m² | - |
| 1778075198 | 21.67° C | 65% | 1009.9 hPa | 0 mm | - | 269 W/m² | - |
* Rain latest hour (hover to see other rain measurements)
** Current wind speed in m/s (hover to see current wind gust speed)